Regional Weather Roundup
Issued by NWS State College, PA

Home | Current Version | Previous Version | Graphics & Text | Print | Product List | Glossary Off
Versions: 1 2 3 4 5 6 7 8 9 10 11 12 13 14 15 16 17 18 19 20 21 22 23 24 25 26 27 28 29 30 31 32 33 34 35 36 37 38 39 40 41 42 43 44 45 46 47 48 49 50

000
ASUS41 KCTP 011210
RWRCTP

REGIONAL WEATHER ROUNDUP
NATIONAL WEATHER SERVICE STATE COLLEGE PA
700 AM EST SUN MAR 01 2015

Note: "fair" indicates few or no clouds below 12,000 feet with no
significant weather and/or obstructions to visibility.

* = STATION THAT DOES NOT REPORT PRECIPITATION /E.G. RAIN...SNOW...ETC/
    THUNDER OR FOG.

PAZ002>004-007>009-013>016-020>023-029>032-011300-
WESTERN PENNSYLVANIA

CITY           SKY/WX    TMP DP  RH WIND       PRES   REMARKS
ERIE           LGT SNOW  21  16  81 S7        30.41F WCI  12
MEADVILLE      LGT SNOW  19  15  84 E3        30.36F
FRANKLIN*      CLOUDY    18  14  86 SE5       30.37F VSB 3/4 WCI  11
NEW CASTLE     LGT SNOW  19  18  96 CALM      30.40F VSB 3/4
BEAVER COUNTY  NOT AVBL
BUTLER*        CLOUDY    23  19  86 SE5       30.39F
PITTSBURGH INT LGT SNOW  24  22  91 SE6       30.37F VSB 1
PITTSBURGH     LGT SNOW  24  20  84 S8        30.37F FOG
INDIANA*       FOG       25  23  93 S6        30.42F VSB 1/2
LATROBE        LGT SNOW  28  28 100 SW9       30.41F
WASHINGTON CO* MOCLDY    27  23  86 S6        30.40F
$$

PAZ004>006-010>012-017>019-024>028-033>037-041-042-045-046-049>053-011300-
CENTRAL PENNSYLVANIA

CITY           SKY/WX    TMP DP  RH WIND       PRES   REMARKS
BRADFORD       LGT SNOW  16  11  80 SE8       30.33F VSB 1   WCI   5
DUBOIS         SNOW      18  15  88 SE7       30.35F VSB 1/2 WCI   9
CLEARFIELD     LGT SNOW  16  13  88 NE6       30.42F VSB 3/4 WCI   7
JOHNSTOWN      LGT SNOW  20  18  92 S7        30.35F FOG     WCI  11
ALTOONA        LGT SNOW  20  16  84 S8        30.46F FOG     WCI  10
STATE COLLEGE  LGT SNOW  18  16  93 CALM      30.47F FOG
WILLIAMSPORT   LGT SNOW  16  12  84 VRB3      30.56F FOG
SELINSGROVE    LGT SNOW  17  14  88 CALM      30.59F FOG
FT INDIANTOWN  MOCLDY    17  11  78 CALM      30.60F
CAPITAL CITY   CLOUDY    22  10  60 E5        30.61F
HARRISBURG     FLURRIES  21  10  62 E3        30.61F
YORK           CLOUDY    23   8  52 S5        30.60F
$$

PAZ038>040-043-044-047-048-054-055-060>062-067>071-011300-
EASTERN PENNSYLVANIA

CITY           SKY/WX    TMP DP  RH WIND       PRES   REMARKS
SCRANTON       CLOUDY    14   8  77 CALM      30.54F HAZE
MOUNT POCONO   LGT SNOW  15   8  73 CALM      30.48F
ALLENTOWN      CLOUDY    18   5  57 E3        30.63F
QUAKERTOWN*    PTSUNNY   18   9  68 CALM      30.62F
READING        CLOUDY    18   7  62 CALM      30.62F
LANCASTER      CLOUDY    20  12  71 SE6       30.61F WCI  12
COATESVILLE    PTSUNNY   23  14  68 CALM      30.62S
POTTSTOWN      CLOUDY    18   5  57 CALM      30.65F
BLUE BELL      MOCLDY    23  14  68 CALM      30.63F
DOYLESTOWN     CLOUDY    18  10  71 CALM      30.62F
WILLOW GROVE   NOT AVBL
NORTH PHILA    CLOUDY    25  12  58 CALM      30.68S
PHILADELPHIA   CLOUDY    24  13  62 CALM      30.67F
$$


USA.gov is the U.S. government's official web portal to all federal, state and local government web resources and services.